Location: Ailly
(50.0793°N, 1.9944°E)
Time: 11:58:18
(UTC+00:00)

Gblst 52 Del rocket - Pass Details

Date: 15 January 2026
Orbit: 805 x 1364 km, 51.5° (Epoch: 16 February)

Event Time Altitude Azimuth Distance (km) Brightness Sun altitude
Exits shadow 05:47:12 33° 282° (WNW) 1,342 4.7 -18.3°
Maximum altitude 05:49:46 77° 201° (SSW) 829 4.1 -17.9°
Drops below altitude 10° 05:55:20 10° 117° (ESE) 2,429 7.8 -17.0°
Sets 05:57:52 0° 116° (ESE) 3,404 9.0 -16.6°
